Theta_e
295 295 295 294 294 293 292 292 292 292 292 292 292 293 293 293 293 294 293 293 293 290
295 294 293 293 293 292 291 291 292 292 291 292 292 292 293 292 292 292 292 292 292 292
294 294 294 293 292 291 291 291 291 291 291 290 291 291 291 291 290 290 291 290 290 290
293 293 293 292 292 291 291 290 289 289 289 288 288 289 288 287 288 287 287 289 288 288
293 293 292 291 291 291 289 289 289 288 287 286 286 286 287 285 284 284 284 284 285 284
290 286 287 287 289 288 288 287 286 285 285 284 284 283 284 284 284 283 282 282 281 281
289 287 286 287 288 287 286 284 284 284 284 283 284 284 284 284 283 283 282 282 281 281
289 289 288 288 288 288 287 285 284 284 284 285 285 286 287 285 285 285 283 284 284 283
290 288 288 288 289 289 288 287 288 287 287 286 284 281 282 285 286 285 285 284 283 282
289 288 287 288 288 288 288 288 288 288 288 286 283 280 281 282 287 285 285 284 284 281
288 288 287 287 287 288 288 288 288 288 288 286 282 279 280 281 286 286 284 284 283 282
289 287 286 286 287 288 288 288 288 288 287 285 282 279 280 281 285 284 283 282 280 281
289 287 286 287 288 288 288 287 286 286 287 284 282 279 279 282 284 283 283 283 281 277
289 288 287 288 288 287 287 285 286 285 284 284 284 281 279 281 284 284 283 282 281 279
Wind_Speed
8 5 5 4 5 4 4 5 5 5 6 7 6 6 6 6 6 7 7 9 7 6
6 6 6 7 5 4 5 5 5 6 7 7 7 7 6 7 7 7 8 8 9 7
8 7 7 6 6 6 6 5 6 7 8 7 8 8 8 7 9 9 8 8 10 9
8 8 7 7 7 6 6 6 7 8 8 8 8 8 9 10 10 11 11 11 11 12
8 6 8 7 7 6 7 6 7 7 8 8 9 9 8 11 10 11 11 12 12 12
11 6 6 6 7 7 7 8 8 8 7 8 7 8 8 10 10 10 9 10 10 11
9 12 9 7 9 8 9 8 7 6 6 6 5 6 7 8 7 8 7 8 9 9
11 12 11 10 10 9 10 9 7 6 4 5 4 3 6 9 5 6 6 4 6 7
13 12 12 11 11 10 11 11 10 9 8 6 6 6 8 5 8 7 7 7 8 9
13 12 12 11 11 10 10 9 8 8 8 9 8 5 6 12 7 7 7 8 8 8
13 13 12 12 11 11 9 9 8 7 8 9 7 2 5 11 6 7 8 9 9 9
15 14 13 13 12 10 10 8 8 7 8 8 8 1 6 11 5 6 7 8 11 11
14 13 13 12 11 10 9 8 7 6 7 9 8 3 5 10 3 4 4 5 8 14
13 13 12 11 10 9 9 7 6 7 6 5 7 6 5 11 4 2 2 3 4 7
Wind_Direction
139 124 118 96 104 89 80 74 67 71 61 54 43 45 34 46 45 42 44 33 39 51
129 131 113 114 114 103 102 113 83 71 69 56 49 42 53 49 43 48 44 39 30 33
133 135 128 124 112 111 111 100 90 73 62 59 55 48 42 50 50 43 40 42 33 30
138 137 139 131 122 109 104 94 81 74 74 62 52 61 66 55 40 54 39 34 35 25
119 148 134 129 119 105 102 91 86 86 81 69 73 52 56 73 61 49 49 36 36 27
141 91 92 99 128 118 101 76 68 65 80 86 87 83 64 59 65 62 54 47 44 37
162 145 146 155 141 135 129 123 114 117 110 106 97 92 88 78 79 72 62 62 53 49
168 149 154 167 152 143 153 133 142 137 135 137 92 98 98 94 79 111 91 131 104 53
158 157 165 169 161 165 151 160 158 151 136 119 83 43 19 30 98 70 60 68 58 60
159 169 168 169 162 166 162 160 156 149 136 113 97 61 3 343 79 73 68 57 52 52
166 170 170 169 169 165 161 161 155 146 129 110 94 68 330 330 101 87 63 48 46 48
176 168 171 175 169 166 164 159 149 148 137 127 124 130 321 308 123 107 93 83 45 28
169 169 174 172 168 166 163 150 138 135 116 88 122 119 349 344 104 106 103 69 93 57
170 168 170 165 166 168 147 145 112 94 85 63 86 106 45 7 77 83 68 62 70 62